Location: Unspecified
(50.7693°N, 0.0000°E)
Time: 18:57:03
(UTC+00:00)

Transit 2A - Visible Passes

Search period start: 12 June 2021 00:00
Search period end: 22 June 2021 00:00
Orbit: 601 x 957 km, 66.7° (Epoch: 12 June)

Date Brightness Start Highest point End Pass type
(mag) Time Alt. Az. Time Alt. Az. Time Alt. Az.
12 Jun 8.8 00:06:06 10° NNW 00:08:47 15° NNE 00:11:34 10° ENE visible
12 Jun 7.1 01:48:35 10° NNW 01:53:06 43° NE 01:58:00 10° ESE visible
12 Jun 9.0 21:47:19 10° NNW 21:49:01 12° N 21:50:45 10° NNE visible
12 Jun 8.8 23:32:01 10° NNW 23:34:14 13° NNE 23:36:32 10° NE visible
13 Jun 7.6 01:14:29 10° NNW 01:18:46 33° NE 01:23:24 10° ESE visible
13 Jun 6.0 02:57:26 10° NW 03:02:07 53° WSW 03:07:16 10° SSE visible
13 Jun 8.8 21:12:19 10° NW 21:14:26 13° NNW 21:16:37 10° NNE visible
13 Jun 8.9 22:57:52 10° NNW 22:59:40 12° N 23:01:31 10° NE visible
14 Jun 8.0 00:40:24 10° NNW 00:44:25 27° NE 00:48:41 10° E visible
14 Jun 5.8 02:23:11 10° NW 02:27:58 74° SW 02:33:16 10° SSE visible
14 Jun 8.9 22:23:37 10° NNW 22:25:05 11° N 22:26:33 10° NNE visible
15 Jun 8.3 00:06:20 10° NNW 00:09:59 22° NNE 00:13:52 10° E visible
15 Jun 6.0 01:48:59 10° NW 01:53:47 82° NE 01:59:05 10° SE visible
15 Jun 8.9 21:49:11 10° NNW 21:50:28 11° N 21:51:47 10° NNE visible
15 Jun 8.5 23:32:16 10° NNW 23:35:31 18° NNE 23:38:58 10° ENE visible
16 Jun 6.4 01:14:49 10° NNW 01:19:34 61° NE 01:24:46 10° SE visible
16 Jun 6.9 02:58:25 10° WNW 03:02:28 26° WSW 03:06:50 10° SSW visible
16 Jun 8.8 21:14:28 10° NNW 21:15:52 11° N 21:17:17 10° NNE visible
16 Jun 8.6 22:58:11 10° NNW 23:01:01 16° NNE 23:03:59 10° ENE visible
17 Jun 6.9 00:40:42 10° NNW 00:45:18 46° NE 00:50:19 10° ESE visible
17 Jun 6.5 02:23:56 10° NW 02:28:24 36° WSW 02:33:16 10° S visible
17 Jun 8.6 22:24:05 10° NNW 22:26:29 14° NNE 22:28:58 10° NE visible
18 Jun 7.4 00:06:36 10° NNW 00:10:58 35° NE 00:15:45 10° ESE visible
18 Jun 6.1 01:49:35 10° NW 01:54:18 50° WSW 01:59:29 10° SSE visible
18 Jun 8.6 21:49:56 10° NNW 21:51:55 12° NNE 21:53:56 10° NE visible
18 Jun 7.7 23:32:30 10° NNW 23:36:37 28° NE 23:41:03 10° E visible
19 Jun 5.9 01:15:19 10° NW 01:20:09 69° WSW 01:25:30 10° SSE visible
19 Jun 7.8 03:00:35 10° W 03:02:36 12° WSW 03:04:41 10° SW visible
19 Jun 8.6 21:15:42 10° NNW 21:17:19 12° N 21:18:59 10° NNE visible
19 Jun 8.0 22:58:25 10° NNW 23:02:13 23° NNE 23:06:15 10° E visible
20 Jun 5.9 00:41:07 10° NW 00:45:58 87° NE 00:51:21 10° SE visible
20 Jun 7.5 02:25:19 10° WNW 02:28:38 18° WSW 02:31:50 11° SSW visible
20 Jun 8.2 22:24:21 10° NNW 22:27:46 19° NNE 22:31:22 10° ENE visible
21 Jun 6.2 00:06:56 10° NNW 00:11:45 65° NE 00:17:04 10° SE visible
21 Jun 7.1 01:50:36 10° WNW 01:54:37 25° WSW 01:57:34 16° SSW visible
21 Jun 8.4 21:50:16 10° NNW 21:53:16 16° NNE 21:56:24 10° ENE visible
21 Jun 6.7 23:32:48 10° NNW 23:37:29 49° NE 23:42:38 10° ESE visible
